Search for airport 
image banner adimage banner ad
image banner ad

DAON - Tlemcen / Zenata-Messali El Hadj

Located in Tlemcen, Algeria

ICAO - DAON, IATA - TLM

Data provided by Airmate  

General information

Coordinates: N35°0'55" W1°27'3"
Elevation is 813 feet MSL.
 
View others Airports in Tlemcen Province

Operational data

Open for public use
Current time UTC:
Current local time:
Weather
METAR: DAON 290200Z 12002KT CAVOK 18/08 Q1015
TAF: TAF DAON 282300Z 2900/2924 VRB02KT CAVOK BECMG 2912/2915 35012KT
View NOTAMs / SUP AIP / TFR affecting this airport [VIEW]
Communications frequencies: [VIEW]

Runways:

RWY identifierQFULength (ft)Width (ft)SurfaceLDA (ft)
0769°8530148ASP
25249°8530148

Airport contact information

Address: Tlemcen Algeria

Satellite view of DAON